VAW9150 LBPD-DNMM

Flight info

Callsign VAW9150
Flight time N/A
Altitude 38000
Route RUMEN DCT NAPET DCT LETNI DCT ERANA UT262 YNN UM600 DINOB/N0446F370 DCT ERNAM DCT LORED/N0448F380 DCT RALAK UG362 BOD UG855 BIDOM UM114 LITAK/N0454F370 UM114 NASTO/N0453F380 UM114 KIGRA UB731 BUDSI BUDSI1N
Aircraft A320/M-SDE3FGHIRWY/LB1

Departure

Time 2026-05-04 12:27
Airport Plovdiv International Airport (LBPD)

Arrival

Time N/A
Airport Murtala Muhammed International Airport (DNMM)
Time Latitude Longitude Altitude Speed Heading
2026-05-04 12:13 42.07658 24.84249 596 ft 0 kts 38°
2026-05-04 12:18 42.07654 24.84246 596 ft 0 kts 38°
2026-05-04 12:18 42.07652 24.84244 596 ft 2 kts 38°
2026-05-04 12:18 42.07641 24.84232 596 ft 2 kts 38°
2026-05-04 12:18 42.07629 24.84219 596 ft 2 kts 38°
2026-05-04 12:19 42.07616 24.84207 596 ft 2 kts 47°
2026-05-04 12:19 42.07611 24.84189 596 ft 2 kts 88°
2026-05-04 12:19 42.07613 24.84170 596 ft 0 kts 122°
2026-05-04 12:19 42.07617 24.84164 596 ft 1 kts 130°
2026-05-04 12:20 42.07619 24.84161 596 ft 0 kts 128°
2026-05-04 12:22 42.07610 24.84176 597 ft 5 kts 127°
2026-05-04 12:22 42.07577 24.84237 598 ft 11 kts 127°
2026-05-04 12:23 42.07498 24.84275 599 ft 16 kts 195°
2026-05-04 12:23 42.07407 24.84363 600 ft 19 kts 126°
2026-05-04 12:23 42.07311 24.84532 603 ft 26 kts 128°
2026-05-04 12:23 42.07193 24.84742 606 ft 27 kts 128°
2026-05-04 12:24 42.07087 24.84933 609 ft 21 kts 127°
2026-05-04 12:24 42.06989 24.85102 612 ft 26 kts 127°
2026-05-04 12:24 42.06870 24.85312 615 ft 27 kts 128°
2026-05-04 12:24 42.06759 24.85509 618 ft 25 kts 127°
2026-05-04 12:25 42.06651 24.85701 621 ft 29 kts 127°
2026-05-04 12:25 42.06533 24.85908 623 ft 26 kts 127°
2026-05-04 12:25 42.06424 24.86100 626 ft 26 kts 127°
2026-05-04 12:25 42.06307 24.86280 628 ft 23 kts 152°
2026-05-04 12:26 42.06157 24.86278 629 ft 21 kts 232°
2026-05-04 12:26 42.06196 24.86115 628 ft 19 kts 309°
2026-05-04 12:26 42.06304 24.85929 626 ft 42 kts 308°
2026-05-04 12:26 42.06652 24.85312 619 ft 120 kts 307°
2026-05-04 12:27 42.07258 24.84231 812 ft 160 kts 305°
2026-05-04 12:27 42.07907 24.83077 1627 ft 156 kts 307°
2026-05-04 12:27 42.08548 24.81957 2468 ft 153 kts 308°
2026-05-04 12:27 42.09214 24.80795 3021 ft 166 kts 309°
2026-05-04 12:28 42.09953 24.79508 3557 ft 181 kts 309°
2026-05-04 12:28 42.10669 24.78073 4123 ft 197 kts 303°
2026-05-04 12:28 42.11387 24.76350 4598 ft 221 kts 302°
2026-05-04 12:28 42.12171 24.74508 5202 ft 239 kts 302°
2026-05-04 12:29 42.13023 24.72501 5819 ft 258 kts 302°
2026-05-04 12:29 42.13933 24.70360 6630 ft 268 kts 303°
2026-05-04 12:29 42.14854 24.68187 7586 ft 273 kts 304°
2026-05-04 12:29 42.15789 24.65986 8519 ft 278 kts 304°
2026-05-04 12:30 42.16760 24.63712 9438 ft 283 kts 305°
2026-05-04 12:30 42.17747 24.61406 10330 ft 289 kts 305°
2026-05-04 12:30 42.18767 24.59030 10969 ft 304 kts 305°
2026-05-04 12:30 42.19856 24.56499 11484 ft 323 kts 305°
2026-05-04 12:31 42.21013 24.53796 12018 ft 339 kts 304°
2026-05-04 12:31 42.22195 24.51013 12815 ft 346 kts 304°
2026-05-04 12:31 42.23384 24.48206 13690 ft 349 kts 304°